Regional Weather Roundup
Issued by NWS

Home | Current Version | Previous Version | Text Only | Print | Product List | Glossary On
Versions: 1 2 3 4 5 6 7 8 9 10 11 12 13 14 15 16 17 18 19 20 21 22 23 24 25 26 27 28 29 30 31 32 33 34 35 36 37 38 39 40 41 42 43 44 45 46 47 48 49 50
000
ASUS43 KLMK 011210
RWRKY
KENTUCKY REGIONAL WEATHER ROUNDUP
NATIONAL WEATHER SERVICE LOUISVILLE KY
800 AM EDT WED OCT 01 2014

NOTE "FAIR" INDICATES FEW OR NO CLOUDS BELOW 12,000 FEET
WITH NO SIGNIFICANT WEATHER AND/OR OBSTRUCTIONS TO VISIBILITY.

KYZ001>023-026-027-061>063-070>075-011300-
WESTERN AND SOUTH CENTRAL KENTUCKY

CITY           SKY/WX    TMP DP  RH WIND       PRES   REMARKS
PADUCAH        MOCLDY    58  56  93 CALM      29.92S
HENDERSON      NOT AVBL
OWENSBORO      CLEAR     61  59  93 CALM      29.96R FOG
HOPKINSVILLE   CLEAR     58  54  88 E3        29.95R
BOWLING GREEN  FOG       56  54  93 CALM      29.98R VSB 3/4
GLASGOW        PTCLDY    55  55 100 CALM      29.98R FOG
$$

KYZ024-025-028>034-038-045-046-053-011300-
NORTH CENTRAL KENTUCKY

CITY           SKY/WX    TMP DP  RH WIND       PRES   REMARKS
LOUISVILLE/SDF PTCLDY    58  54  86 E3        29.99R
LOUISVILLE/LOU CLEAR     57  53  86 CALM      30.00R
FORT KNOX      CLEAR     57  55  95 NE3       29.97R FOG
$$

KYZ035>037-039>044-047>052-055>060-089>105-011300-
NORTHEAST KENTUCKY

CITY           SKY/WX    TMP DP  RH WIND       PRES   REMARKS
LEXINGTON      FOG       58  56  93 E5        30.00R VSB 1/4
COVINGTON      CLEAR     50  47  89 N6        30.01R
FRANKFORT      MOCLDY    53  51  93 CALM      29.99R
$$

KYZ054-064>069-076>088-106>120-011300-
SOUTHEAST KENTUCKY

CITY           SKY/WX    TMP DP  RH WIND       PRES   REMARKS
JACKSON        FOG       58  57  97 CALM      30.01R VSB<1/4
LONDON         PTCLDY    53  51  93 CALM      30.01R FOG
SOMERSET       PTCLDY    54  54 100 CALM      30.01S FOG
MIDDLESBORO    FOG       53  53 100 CALM      30.04R VSB 1/4
MONTICELLO     MOSUNNY   52  52 100 CALM      30.02R FOG
$$




USA.gov is the U.S. government's official web portal to all federal, state and local government web resources and services.